Location: Unspecified
(0.0000°N, 0.0000°E)
Time: 19:19:24
(UTC+00:00)

Vanguard 2 - Pass Details

Date: 17 December 2017
Orbit: 552 x 2940 km, 32.9° (Epoch: 16 January)

Event Time Altitude Azimuth Distance (km) Brightness Sun altitude
Rises 13:50:35 0° 278° (W) 5,974 12.4 53.7°
Reaches altitude 10° 13:58:30 10° 304° (NW) 4,316 11.6 52.2°
Maximum altitude 14:02:28 12° 325° (NW) 3,757 11.2 51.5°
Drops below altitude 10° 14:05:54 10° 346° (NNW) 3,586 10.9 50.8°
Sets 14:10:58 0° 16° (NNE) 4,013 10.9 49.8°
